This demonstration page uses our WeatherBlox Daily Observations layout. Learn more.

Left ArrowRight Arrow

Hourly Observations for September 15, 2016

Temp ( °F °C ) Dew Point ( °F °C ) Humidity (%) Winds ( mph kmh ) Pressure ( in mb ) Visibility ( mi km ) Precip ( " mm )
12:51 am 00:51 Clear 68 20 60 15.6 76 76 Calm 29.87 1012 10 16.0934 0 0
1:51 am 01:51 Clear 67 19.4 61 16.1 81 81 E 5 7 29.87 1012 10 16.0934 0 0
2:51 am 02:51 Clear 66 18.9 60 15.6 81 81 NE 3 6 29.87 1012 10 16.0934 0 0
3:51 am 03:51 Clear 64 17.8 61 16.1 90 90 Calm 29.87 1011 10 16.0934 0 0
4:51 am 04:51 Clear 64 17.8 60 15.6 87 87 SSE 3 6 29.87 1012 10 16.0934 0 0
5:51 am 05:51 Clear 64 17.8 60 15.6 87 87 Calm 29.9 1012 10 16.0934 0 0
6:51 am 06:51 Sunny 66 18.9 61 16.1 84 84 Calm 29.91 1013 10 16.0934 0 0
7:51 am 07:51 Sunny 70 21.1 60 15.6 71 71 Calm 29.91 1013 10 16.0934 0 0
8:51 am 08:51 Sunny 75 23.9 59 15 58 58 Calm 29.91 1013 10 16.0934 0 0
9:51 am 09:51 Sunny 79 26.1 58 14.4 49 49 WNW 3 6 29.9 1013 10 16.0934 0 0
10:51 am 10:51 Sunny 82 27.8 55 12.8 40 40 Calm 29.89 1012 10 16.0934 0 0
11:51 am 11:51 Sunny 85 29.4 55 12.8 36 36 Calm 29.86 1011 10 16.0934 0 0
12:51 pm 12:51 Sunny 87 30.6 53 11.7 31 31 S 5 7 29.83 1010 10 16.0934 0 0
1:51 pm 13:51 Sunny 89 31.7 55 12.8 31 31 VRB 3 6 29.81 1009 10 16.0934 0 0
2:51 pm 14:51 Sunny 90 32.2 51 10.6 26 26 NW 6 9 29.78 1008 10 16.0934 0 0
3:51 pm 15:51 Sunny 91 32.8 48 8.9 23 23 W 14 22 29.76 1008 10 16.0934 0 0
4:51 pm 16:51 Sunny 90 32.2 48 8.9 24 24 W 15 24 29.76 1008 10 16.0934 0 0
5:51 pm 17:51 Sunny 87 30.6 43 6.1 21 21 WNW 15 24 29.76 1008 10 16.0934 0 0
6:51 pm 18:51 Clear 81 27.2 47 8.3 30 30 NW 9 15 29.79 1009 10 16.0934 0 0
7:51 pm 19:51 Clear 79 26.1 44 6.7 29 29 NW 14 22 29.82 1010 10 16.0934 0 0
8:51 pm 20:51 Clear 75 23.9 44 6.7 33 33 NNW 10 17 29.83 1010 10 16.0934 0 0.0254
9:51 pm 21:51 Clear 73 22.8 44 6.7 35 35 NNW 9 15 29.83 1010 10 16.0934 0 0
10:51 pm 22:51 Clear 69 20.6 43 6.1 39 39 NW 8 13 29.83 1010 10 16.0934 0 0
11:51 pm 23:51 Clear 67 19.4 44 6.7 44 44 NW 3 6 29.83 1010 10 16.0934 0 0

Powered by AerisWeather